02/09/2026 / 06/09/2026
| Fecha / Hora | Descripción | Porcentaje Nubes | Temperatura | Humedad | Viento | |
| miércoles 02/09/2026 00:00 hs | muy nuboso | 51 % | 17.8 ° | 91 % | 5.1 Km/h | |
| miércoles 02/09/2026 03:00 hs | muy nuboso | 58 % | 17.9 ° | 90 % | 2.6 Km/h | |
| miércoles 02/09/2026 06:00 hs | lluvia ligera | 72 % | 17.8 ° | 90 % | 2.3 Km/h | |
| miércoles 02/09/2026 09:00 hs | lluvia ligera | 81 % | 19.8 ° | 85 % | 5.4 Km/h | |
| miércoles 02/09/2026 12:00 hs | algo de nubes | 23 % | 24.9 ° | 63 % | 6.4 Km/h | |
| miércoles 02/09/2026 15:00 hs | algo de nubes | 16 % | 21.6 ° | 68 % | 11.3 Km/h | |
| miércoles 02/09/2026 18:00 hs | nubes dispersas | 25 % | 18.2 ° | 82 % | 5.4 Km/h | |
| miércoles 02/09/2026 21:00 hs | algo de nubes | 23 % | 17.1 ° | 88 % | 2.7 Km/h | |
| jueves 03/09/2026 00:00 hs | muy nuboso | 81 % | 18.2 ° | 86 % | 4.1 Km/h | |
| jueves 03/09/2026 03:00 hs | lluvia ligera | 94 % | 19.1 ° | 90 % | 6.6 Km/h | |
| jueves 03/09/2026 06:00 hs | nubes | 85 % | 18.4 ° | 95 % | 7.9 Km/h | |
| jueves 03/09/2026 09:00 hs | muy nuboso | 59 % | 21.1 ° | 80 % | 11.1 Km/h | |
| jueves 03/09/2026 12:00 hs | cielo claro | 2 % | 26.1 ° | 62 % | 11.2 Km/h | |
| jueves 03/09/2026 15:00 hs | cielo claro | 1 % | 24 ° | 70 % | 14.5 Km/h | |
| jueves 03/09/2026 18:00 hs | cielo claro | 0 % | 17.3 ° | 92 % | 8.8 Km/h | |
| jueves 03/09/2026 21:00 hs | cielo claro | 2 % | 16.2 ° | 95 % | 5.1 Km/h | |
| viernes 04/09/2026 00:00 hs | cielo claro | 4 % | 15.3 ° | 95 % | 6.2 Km/h | |
| viernes 04/09/2026 03:00 hs | cielo claro | 4 % | 15 ° | 95 % | 6.9 Km/h | |
| viernes 04/09/2026 06:00 hs | cielo claro | 3 % | 15.1 ° | 94 % | 7.5 Km/h | |
| viernes 04/09/2026 09:00 hs | algo de nubes | 21 % | 19.5 ° | 79 % | 2.9 Km/h | |
| viernes 04/09/2026 12:00 hs | nubes | 97 % | 22.9 ° | 66 % | 12.5 Km/h | |
| viernes 04/09/2026 15:00 hs | lluvia ligera | 99 % | 19.3 ° | 80 % | 15.9 Km/h | |
| viernes 04/09/2026 18:00 hs | lluvia moderada | 100 % | 15.7 ° | 95 % | 16.1 Km/h | |
| viernes 04/09/2026 21:00 hs | lluvia moderada | 100 % | 14.8 ° | 94 % | 10.1 Km/h | |
| sábado 05/09/2026 00:00 hs | lluvia ligera | 100 % | 14.5 ° | 93 % | 9.2 Km/h | |
| sábado 05/09/2026 03:00 hs | lluvia ligera | 100 % | 14.2 ° | 94 % | 8.4 Km/h | |
| sábado 05/09/2026 06:00 hs | lluvia ligera | 100 % | 14 ° | 95 % | 8.5 Km/h | |
| sábado 05/09/2026 09:00 hs | lluvia ligera | 100 % | 13.6 ° | 94 % | 8 Km/h | |
| sábado 05/09/2026 12:00 hs | lluvia moderada | 100 % | 14.4 ° | 90 % | 9.9 Km/h | |
| sábado 05/09/2026 15:00 hs | lluvia moderada | 100 % | 14.3 ° | 91 % | 13.2 Km/h | |
| sábado 05/09/2026 18:00 hs | lluvia ligera | 100 % | 13.2 ° | 94 % | 10 Km/h | |
| sábado 05/09/2026 21:00 hs | lluvia ligera | 100 % | 12.8 ° | 92 % | 10.6 Km/h | |
| domingo 06/09/2026 00:00 hs | nubes | 100 % | 12.8 ° | 89 % | 10.6 Km/h | |
| domingo 06/09/2026 03:00 hs | nubes | 100 % | 12.7 ° | 90 % | 8 Km/h | |
| domingo 06/09/2026 06:00 hs | nubes | 100 % | 12.3 ° | 89 % | 7.7 Km/h | |
| domingo 06/09/2026 09:00 hs | nubes | 100 % | 13.6 ° | 79 % | 6 Km/h | |
| domingo 06/09/2026 12:00 hs | nubes | 98 % | 17.4 ° | 56 % | 7.3 Km/h | |
| domingo 06/09/2026 15:00 hs | nubes | 92 % | 15.4 ° | 68 % | 10 Km/h | |
| domingo 06/09/2026 18:00 hs | nubes | 100 % | 13.2 ° | 77 % | 17.1 Km/h | |
| domingo 06/09/2026 21:00 hs | lluvia ligera | 100 % | 11.9 ° | 84 % | 11.9 Km/h |
Fuente: Open Weather Map
© 2009 / 2026 - BrasilPlayas.com
Diseño y desarrollo: ArraialWebDesign
Los artículos publicados en esta web son propiedad intelectual de sus respectivos autores, que se reservan todos los derechos sobre los mismos
Las imágenes contenidas en este sitio están sujetas a la respectiva licencia y acreditación que las acompaña
Este website usa Cookies. Saber más sobre nuestra política de Cookies